Die Wichtigste » das Wetter in Italien » Friaul-Julisch Venetien » Grado » Meteograms hourly weather

Grado, Meteogramm

Grado: stundensatz wetter
Montag, 27 April
Zeit Der Niederschlag Die Temperatur Fühlt Der Druck Die Feuchtigkeit Der Wind
11:00 0.18 mm +18.1° +18.9° 755 mmHg 72% 4 m/S, S
12:00 0.18 mm +18.4° +19.2° 755 mmHg 71% 4 m/S, S
13:00 0.17 mm +18.3° +19° 754 mmHg 72% 4 m/S, S
14:00 0.17 mm +18.1° +18.8° 754 mmHg 73% 3 m/S, S
15:00 0.17 mm +17.9° +18.6° 754 mmHg 73% 3 m/S, S
16:00 0.24 mm +16.7° +17.5° 753 mmHg 78% 3 m/S, SO
17:00 0.24 mm +15.5° +16.4° 753 mmHg 83% 3 m/S, SO
18:00 0.24 mm +14.3° +15.2° 753 mmHg 89% 4 m/S, SO
19:00 0.36 mm +14.2° +15.1° 753 mmHg 90% 4 m/S, SO
20:00 0.36 mm +14° +15.1° 753 mmHg 92% 4 m/S, SO
21:00 0.36 mm +13.9° +14.9° 752 mmHg 93% 5 m/S, SO
22:00 0.72 mm +13.8° +14.9° 752 mmHg 94% 4 m/S, SO
23:00 0.72 mm +13.7° +14.8° 751 mmHg 94% 4 m/S, SO
Dienstag, 28 April
Zeit Der Niederschlag Die Temperatur Fühlt Der Druck Die Feuchtigkeit Der Wind
00:00 0.72 mm +13.7° +14.7° 751 mmHg 95% 3 m/S, SO
01:00 0.52 mm +13.6° +14.6° 751 mmHg 95% 3 m/S, O
02:00 0.52 mm +13.5° +14.5° 750 mmHg 95% 3 m/S, O
03:00 0.52 mm +13.4° +14.4° 750 mmHg 94% 3 m/S, O
04:00 0.25 mm +13.8° +14.8° 750 mmHg 93% 2 m/S, O
05:00 0.25 mm +14.1° +15.1° 750 mmHg 91% 2 m/S, O
06:00 0.25 mm +14.5° +15.5° 750 mmHg 90% 2 m/S, NO
07:00 0.42 mm +15° +16° 750 mmHg 89% 2 m/S, NO
08:00 0.42 mm +15.5° +16.6° 751 mmHg 88% 2 m/S, NO
09:00 0.42 mm +16° +17.1° 751 mmHg 87% 2 m/S, O
10:00 0.73 mm +16.2° +17.3° 752 mmHg 87% 2 m/S, O
11:00 0.73 mm +16.4° +17.5° 752 mmHg 87% 2 m/S, O
12:00 0.73 mm +16.5° +17.7° 753 mmHg 87% 2 m/S, O
13:00 0.54 mm +16.7° +17.8° 753 mmHg 85% 2 m/S, O
14:00 0.54 mm +16.8° +17.9° 754 mmHg 84% 2 m/S, O
15:00 0.54 mm +16.9° +18° 754 mmHg 83% 2 m/S, SO
16:00 0.21 mm +15.9° +17° 755 mmHg 86% 1 m/S, SO
17:00 0.21 mm +15° +16° 756 mmHg 88% 1 m/S, O
18:00 0.21 mm +14° +15° 757 mmHg 91% 1 m/S, N
19:00 0.18 mm +13.5° +14.3° 758 mmHg 89% 1 m/S, N
20:00 0.18 mm +13° +13.7° 759 mmHg 87% 1 m/S, N
21:00 0.18 mm +12.5° +13.1° 760 mmHg 85% 2 m/S, N
22:00 0.16 mm +11.7° +12.2° 761 mmHg 84% 2 m/S, N
23:00 0.16 mm +10.9° +11.3° 762 mmHg 83% 2 m/S, NO
Mittwoch, 29 April
Zeit Der Niederschlag Die Temperatur Fühlt Der Druck Die Feuchtigkeit Der Wind
00:00 0.16 mm +10.1° +10.4° 763 mmHg 82% 2 m/S, NO
01:00 0.01 mm +9.4° +9.6° 763 mmHg 83% 2 m/S, NO
02:00 0.01 mm +8.6° +8.8° 763 mmHg 83% 2 m/S, NO
03:00 0.01 mm +7.9° +8° 764 mmHg 83% 3 m/S, NO
04:00 0 mm +8.9° +9° 764 mmHg 79% 3 m/S, NO
05:00 0 mm +10° +10.1° 764 mmHg 76% 3 m/S, NO
06:00 0 mm +11.1° +11.1° 764 mmHg 72% 3 m/S, NO
07:00 0 mm +13.1° +13° 764 mmHg 62% 3 m/S, O
08:00 0 mm +15.2° +14.7° 764 mmHg 51% 2 m/S, O
09:00 0 mm +17.2° +16.4° 764 mmHg 41% 2 m/S, O
10:00 0 mm +17.5° +16.8° 764 mmHg 42% 2 m/S, O

Auch

Meteograms hourly weather Die Wetterkarte Wetterübersicht
Meteograms hourly weather Die Wetterkarte Wetterübersicht

Market


Wetter widget


 
das Wetter in Österreich:
Über das Projekt
© meteoprog.at 2003-2015.
Meteoprog.ua - погода в Украине 0.1077
sitemap